CW2551 Weather Reports


Display with metric or nautical units.
time (UTC)temp
F
wind
direction
speed
MPH
gust
MPH
rain 1hr
in
rain 24hr
in
rain mn
in
humidity
%
barometer
mb
20260507012605 81 334 5.0 10.0 0.00 0.00 0.00 37 1015.2
20260507012104 81 328 2.0 5.0 0.00 0.00 0.00 37 1015.2
20260507012023 81 262 1.0 8.0 0.00 0.00 0.00 37 1015.1
20260507011603 81 262 1.0 8.0 0.00 0.00 0.00 37 1015.1
20260507010603 82 326 2.0 9.0 0.00 0.00 0.00 37 1015.1
20260507010104 82 357 1.0 5.0 0.00 0.00 0.00 36 1015.1
20260507005604 82 359 1.0 6.0 0.00 0.00 0.00 36 1015.1
20260507005104 82 10 2.0 9.0 0.00 0.00 0.00 36 1015.1
20260507005021 82 345 3.0 8.0 0.00 0.00 0.00 35 1014.9
20260507004605 82 345 3.0 8.0 0.00 0.00 0.00 35 1014.9
20260507004104 83 305 3.0 9.0 0.00 0.00 0.00 35 1014.9
20260507003104 83 350 3.0 9.0 0.00 0.00 0.00 34 1014.9
20260507003023 83 224 1.0 8.0 0.00 0.00 0.00 35 1014.9
20260507002603 83 224 1.0 8.0 0.00 0.00 0.00 35 1014.9
20260507002022 83 233 2.0 7.0 0.00 0.00 0.00 33 1014.9
20260507001604 83 233 2.0 7.0 0.00 0.00 0.00 33 1014.9
20260507001103 83 260 2.0 12.0 0.00 0.00 0.00 35 1014.9
20260507001022 83 347 6.0 13.0 0.00 0.00 0.00 33 1014.9
20260507000604 83 347 6.0 13.0 0.00 0.00 0.00 33 1014.9
20260506235603 83 353 3.0 8.0 0.00 0.00 0.00 32 1014.9
20260506235103 83 341 6.0 10.0 0.00 0.00 0.00 32 1014.9
20260506235021 83 352 4.0 10.0 0.00 0.00 0.00 31 1014.9
20260506234604 83 352 4.0 10.0 0.00 0.00 0.00 31 1014.9
20260506234104 84 353 2.0 8.0 0.00 0.00 0.00 32 1014.9
20260506234023 84 1 5.0 15.0 0.00 0.00 0.00 32 1014.9
20260506233604 84 1 5.0 15.0 0.00 0.00 0.00 32 1014.9
20260506233023 84 358 6.0 15.0 0.00 0.00 0.00 32 1014.9
20260506232604 84 358 6.0 15.0 0.00 0.00 0.00 32 1014.9
20260506232103 84 356 5.0 14.0 0.00 0.00 0.00 32 1015.0
20260506231026 83 354 3.0 10.0 0.00 0.00 0.00 32 1015.0
20260506230604 83 354 3.0 10.0 0.00 0.00 0.00 32 1015.0
20260506230105 83 0 2.0 6.0 0.00 0.00 0.00 32 1015.1
20260506230023 83 354 2.0 6.0 0.00 0.00 0.00 33 1015.2
20260506225106 83 317 3.0 8.0 0.00 0.00 0.00 33 1015.2
20260506225021 83 0 2.0 8.0 0.00 0.00 0.00 34 1015.2
20260506224604 83 0 2.0 8.0 0.00 0.00 0.00 34 1015.2
20260506224103 84 355 4.0 6.0 0.00 0.00 0.00 34 1015.3
20260506224021 84 350 3.0 8.0 0.00 0.00 0.00 36 1015.4
20260506223604 84 350 3.0 8.0 0.00 0.00 0.00 36 1015.4
20260506223105 84 30 0.0 3.0 0.00 0.00 0.00 35 1015.5
20260506223023 84 34 1.0 6.0 0.00 0.00 0.00 36 1015.5
20260506222603 84 34 1.0 6.0 0.00 0.00 0.00 36 1015.5
20260506222104 84 349 5.0 10.0 0.00 0.00 0.00 35 1015.6
20260506222021 83 271 0.0 1.0 0.00 0.00 0.00 39 1015.6
20260506221603 83 271 0.0 1.0 0.00 0.00 0.00 39 1015.6
20260506221116 82 259 0.0 5.0 0.00 0.00 0.00 39 1015.6
20260506220606 82 326 2.0 8.0 0.00 0.00 0.00 39 1015.7
20260506215617 82 342 2.0 9.0 0.00 0.00 0.00 41 1015.8
20260506215106 82 0 2.0 8.0 0.00 0.00 0.00 40 1015.8
20260506214608 82 21 1.0 3.0 0.00 0.00 0.00 41 1016.0
20260506214112 82 43 1.0 3.0 0.00 0.00 0.00 41 1016.0
20260506211103 81 350 1.0 3.0 0.00 0.00 0.00 44 1016.5
20260506211021 81 130 0.0 5.0 0.00 0.00 0.00 44 1016.5
20260506210605 81 130 0.0 5.0 0.00 0.00 0.00 44 1016.5
20260506210104 81 21 1.0 3.0 0.00 0.00 0.00 42 1016.5
20260506210023 80 332 2.0 3.0 0.00 0.00 0.00 48 1016.7
20260506205603 80 332 2.0 3.0 0.00 0.00 0.00 48 1016.7
20260506205105 78 219 2.0 5.0 0.00 0.00 0.00 47 1016.8
20260506205021 78 295 0.0 1.0 0.00 0.00 0.00 50 1016.9
20260506204603 78 295 0.0 1.0 0.00 0.00 0.00 50 1016.9
20260506204105 78 305 0.0 1.0 0.00 0.00 0.00 50 1017.0
20260506204022 78 314 1.0 3.0 0.00 0.00 0.00 48 1017.0
20260506203604 78 314 1.0 3.0 0.00 0.00 0.00 48 1017.0
20260506203106 78 348 1.0 5.0 0.00 0.00 0.00 46 1017.1
20260506202603 77 14 0.0 1.0 0.00 0.00 0.00 49 1017.1
20260506202022 78 14 4.0 8.0 0.00 0.00 0.00 44 1017.3
20260506201603 78 14 4.0 8.0 0.00 0.00 0.00 44 1017.3
20260506201103 76 281 0.0 5.0 0.00 0.00 0.00 51 1017.3
20260506201023 77 253 1.0 3.0 0.00 0.00 0.00 52 1017.3
20260506200604 77 253 1.0 3.0 0.00 0.00 0.00 52 1017.3
20260506200025 76 263 2.0 6.0 0.00 0.00 0.00 52 1017.5
20260506195603 76 263 2.0 6.0 0.00 0.00 0.00 52 1017.5
20260506195105 76 20 1.0 7.0 0.00 0.00 0.00 52 1017.6
20260506195021 75 273 2.0 5.0 0.00 0.00 0.00 53 1017.6
20260506194603 75 273 2.0 5.0 0.00 0.00 0.00 53 1017.6
20260506194103 75 313 0.0 3.0 0.00 0.00 0.00 54 1017.7
20260506194022 75 7 2.0 6.0 0.00 0.00 0.00 53 1017.8
20260506193603 75 7 2.0 6.0 0.00 0.00 0.00 53 1017.8
20260506193103 74 288 0.0 3.0 0.00 0.00 0.00 55 1017.7
20260506193023 74 325 2.0 5.0 0.00 0.00 0.00 53 1017.8
20260506192605 74 325 2.0 5.0 0.00 0.00 0.00 53 1017.8
20260506192103 74 324 1.0 6.0 0.00 0.00 0.00 52 1017.8
20260506192021 74 307 1.0 5.0 0.00 0.00 0.00 55 1017.9
20260506191606 74 307 1.0 5.0 0.00 0.00 0.00 55 1017.9
20260506191104 74 126 0.0 3.0 0.00 0.00 0.00 53 1017.9
20260506191020 73 13 0.0 3.0 0.00 0.00 0.00 52 1018.0
20260506190603 73 13 0.0 3.0 0.00 0.00 0.00 52 1018.0
20260506190023 73 3 2.0 6.0 0.00 0.00 0.00 52 1018.1
20260506185103 72 10 1.0 8.0 0.00 0.00 0.00 57 1018.1
20260506185021 72 79 1.0 3.0 0.00 0.00 0.00 56 1018.1
20260506184104 74 80 2.0 5.0 0.00 0.00 0.00 55 1018.2
20260506184021 73 35 2.0 6.0 0.00 0.00 0.00 54 1018.2
20260506183104 72 8 0.0 6.0 0.00 0.00 0.00 56 1018.3
20260506183023 71 46 2.0 9.0 0.00 0.00 0.00 54 1018.4
20260506182605 71 46 2.0 9.0 0.00 0.00 0.00 54 1018.4
20260506182103 71 339 2.0 5.0 0.00 0.00 0.00 57 1018.3
20260506182021 70 7 4.0 10.0 0.00 0.00 0.00 58 1018.4
20260506181605 70 7 4.0 10.0 0.00 0.00 0.00 58 1018.4
20260506181103 70 5 0.0 1.0 0.00 0.00 0.00 56 1018.4
20260506181021 70 9 0.0 5.0 0.00 0.00 0.00 58 1018.4
20260506180605 70 9 0.0 5.0 0.00 0.00 0.00 58 1018.4
20260506180103 69 18 3.0 7.0 0.00 0.00 0.00 59 1018.4
20260506175103 69 0 0.0 3.0 0.00 0.00 0.00 61 1018.5
20260506175021 70 11 2.0 5.0 0.00 0.00 0.00 58 1018.5
20260506174605 70 11 2.0 5.0 0.00 0.00 0.00 58 1018.5
20260506174021 71 61 0.0 3.0 0.00 0.00 0.00 56 1018.4
20260506173605 71 61 0.0 3.0 0.00 0.00 0.00 56 1018.4
20260506173022 70 57 0.0 3.0 0.00 0.00 0.00 57 1018.5
20260506172603 70 57 0.0 3.0 0.00 0.00 0.00 57 1018.5
20260506172020 69 64 0.0 0.0 0.00 0.00 0.00 59 1018.7
20260506171603 69 64 0.0 0.0 0.00 0.00 0.00 59 1018.7
20260506171104 69 62 0.0 1.0 0.00 0.00 0.00 60 1018.7
20260506170104 68 76 1.0 3.0 0.00 0.00 0.00 59 1018.7
20260506170023 68 144 1.0 2.0 0.00 0.00 0.00 59 1018.7
20260506165603 68 144 1.0 2.0 0.00 0.00 0.00 59 1018.7
20260506165104 67 151 3.0 5.0 0.00 0.00 0.00 60 1018.6
20260506165022 67 341 0.0 0.0 0.00 0.00 0.00 60 1018.7
20260506163603 66 338 0.0 0.0 0.00 0.00 0.00 62 1018.8
20260506163104 65 338 0.0 1.0 0.00 0.00 0.00 64 1018.9
20260506162104 65 335 0.0 0.0 0.00 0.00 0.00 65 1019.0
20260506161605 64 335 0.0 0.0 0.00 0.00 0.00 64 1019.0
20260506160604 63 335 0.0 1.0 0.00 0.00 0.00 66 1019.0
20260506160103 63 335 0.0 0.0 0.00 0.00 0.00 66 1019.1
20260506160022 62 335 0.0 3.0 0.00 0.00 0.00 67 1019.1
20260506155603 62 335 0.0 3.0 0.00 0.00 0.00 67 1019.1
20260506155104 61 329 0.0 0.0 0.00 0.00 0.00 69 1019.1
20260506155020 61 329 0.0 0.0 0.00 0.00 0.00 69 1019.2
20260506154603 61 329 0.0 0.0 0.00 0.00 0.00 69 1019.2
20260506154103 60 324 0.0 1.0 0.00 0.00 0.00 70 1019.1
20260506153604 60 323 0.0 0.0 0.00 0.00 0.00 70 1019.2
20260506152604 59 321 0.0 0.0 0.00 0.00 0.00 73 1019.2
20260506151103 57 321 0.0 1.0 0.00 0.00 0.00 75 1019.2
20260506151021 57 318 0.0 0.0 0.00 0.00 0.00 77 1019.2
20260506150604 57 318 0.0 0.0 0.00 0.00 0.00 77 1019.2
20260506150104 56 319 0.0 0.0 0.00 0.00 0.00 78 1019.0
20260506150025 55 319 0.0 0.0 0.00 0.00 0.00 81 1018.9
20260506145104 55 319 0.0 0.0 0.00 0.00 0.00 81 1018.9
20260506145022 54 319 0.0 1.0 0.00 0.00 0.00 83 1018.9
20260506144606 54 319 0.0 1.0 0.00 0.00 0.00 83 1018.9
20260506144104 53 319 0.0 0.0 0.00 0.00 0.00 85 1018.8
20260506144023 53 319 0.0 0.0 0.00 0.00 0.00 86 1018.7
20260506143605 53 319 0.0 0.0 0.00 0.00 0.00 86 1018.7
20260506143104 52 319 0.0 0.0 0.00 0.00 0.00 87 1018.5
20260506142606 51 319 0.0 0.0 0.00 0.00 0.00 88 1018.4
20260506142021 50 319 0.0 0.0 0.00 0.00 0.00 89 1018.3
20260506141104 50 319 0.0 0.0 0.00 0.00 0.00 88 1018.3
20260506141021 50 319 0.0 0.0 0.00 0.00 0.00 88 1018.1
20260506140606 50 319 0.0 0.0 0.00 0.00 0.00 88 1018.1
20260506140105 49 319 0.0 0.0 0.00 0.00 0.00 88 1018.1
20260506140023 49 312 0.0 0.0 0.00 0.00 0.00 88 1018.1
20260506135606 49 312 0.0 0.0 0.00 0.00 0.00 88 1018.1
20260506135105 49 312 0.0 0.0 0.00 0.00 0.00 87 1018.1
20260506135021 49 311 0.0 0.0 0.00 0.00 0.00 87 1018.2
20260506134606 49 311 0.0 0.0 0.00 0.00 0.00 87 1018.2
20260506134104 49 311 0.0 0.0 0.00 0.00 0.00 87 1018.1
20260506134022 49 311 0.0 0.0 0.00 0.00 0.00 87 1018.0
20260506133604 49 311 0.0 0.0 0.00 0.00 0.00 87 1018.0
20260506133104 48 311 0.0 0.0 0.00 0.00 0.00 87 1017.9
20260506132604 49 311 0.0 0.0 0.00 0.00 0.00 87 1017.8
20260506132105 49 311 0.0 0.0 0.00 0.00 0.00 87 1017.8
20260506132021 49 311 0.0 0.0 0.00 0.00 0.00 86 1017.8
20260506131604 49 311 0.0 0.0 0.00 0.00 0.00 86 1017.8
20260506131106 49 311 0.0 0.0 0.00 0.00 0.00 87 1017.7
20260506131022 49 311 0.0 0.0 0.00 0.00 0.00 87 1017.6
20260506130605 49 311 0.0 0.0 0.00 0.00 0.00 87 1017.6
20260506130104 49 311 0.0 0.0 0.00 0.00 0.00 87 1017.6
20260506130024 49 311 0.0 0.0 0.00 0.00 0.00 87 1017.6
20260506125104 49 311 0.0 0.0 0.00 0.00 0.00 86 1017.6
20260506124604 49 311 0.0 0.0 0.00 0.00 0.00 86 1017.6
20260506124105 49 311 0.0 0.0 0.00 0.00 0.00 86 1017.6
20260506123604 49 311 0.0 0.0 0.00 0.00 0.00 86 1017.4
20260506123105 49 311 0.0 0.0 0.00 0.00 0.00 86 1017.4
20260506123021 49 311 0.0 0.0 0.00 0.00 0.00 86 1017.2
20260506122105 49 311 0.0 0.0 0.00 0.00 0.00 85 1017.2
20260506122022 49 311 0.0 0.0 0.00 0.00 0.00 85 1017.2
20260506121104 49 311 0.0 0.0 0.00 0.00 0.00 85 1017.2
20260506120604 49 311 0.0 0.0 0.00 0.00 0.00 85 1017.2
20260506120104 49 311 0.0 0.0 0.00 0.00 0.00 85 1017.1
20260506120022 50 311 0.0 0.0 0.00 0.00 0.00 84 1017.2
20260506115604 50 311 0.0 0.0 0.00 0.00 0.00 84 1017.2
20260506115021 50 311 0.0 0.0 0.00 0.00 0.00 84 1017.0
20260506114604 50 311 0.0 0.0 0.00 0.00 0.00 84 1017.0
20260506114022 50 311 0.0 0.0 0.00 0.00 0.00 84 1016.9
20260506113604 50 311 0.0 0.0 0.00 0.00 0.00 84 1016.9
20260506113105 50 311 0.0 0.0 0.00 0.00 0.00 84 1016.8
20260506113022 50 311 0.0 0.0 0.00 0.00 0.00 83 1016.7
20260506112104 50 311 0.0 0.0 0.00 0.00 0.00 83 1016.8
20260506112023 51 311 0.0 0.0 0.00 0.00 0.00 82 1016.7
20260506111605 51 311 0.0 0.0 0.00 0.00 0.00 82 1016.7
20260506111104 51 311 0.0 0.0 0.00 0.00 0.00 82 1016.7
20260506110605 51 311 0.0 0.0 0.00 0.00 0.00 82 1016.7
20260506110104 51 311 0.0 0.0 0.00 0.00 0.00 82 1016.6
20260506110022 51 311 0.0 0.0 0.00 0.00 0.00 81 1016.5
20260506105604 51 311 0.0 0.0 0.00 0.00 0.00 81 1016.5
20260506105106 51 311 0.0 0.0 0.00 0.00 0.00 81 1016.6
20260506105022 51 311 0.0 0.0 0.00 0.00 0.00 81 1016.5
20260506104604 51 311 0.0 0.0 0.00 0.00 0.00 81 1016.5
20260506104022 52 311 0.0 0.0 0.00 0.00 0.00 80 1016.3
20260506103604 52 311 0.0 0.0 0.00 0.00 0.00 80 1016.3
20260506103104 52 311 0.0 0.0 0.00 0.00 0.00 80 1016.3
20260506103022 52 311 0.0 0.0 0.00 0.00 0.00 80 1016.3
20260506102105 52 311 0.0 0.0 0.00 0.00 0.00 80 1016.3
20260506102021 52 311 0.0 0.0 0.00 0.00 0.00 80 1016.4
20260506101604 52 311 0.0 0.0 0.00 0.00 0.00 80 1016.4
20260506101104 52 311 0.0 0.0 0.00 0.00 0.00 79 1016.3
20260506100604 52 311 0.0 0.0 0.00 0.00 0.00 79 1016.3
20260506100105 53 311 0.0 0.0 0.00 0.00 0.00 79 1016.2
20260506100021 53 311 0.0 0.0 0.00 0.00 0.00 79 1016.3
20260506095605 53 311 0.0 0.0 0.00 0.00 0.00 79 1016.3
20260506095106 53 311 0.0 0.0 0.00 0.00 0.00 78 1016.3
20260506095021 53 311 0.0 0.0 0.00 0.00 0.00 78 1016.2
20260506094604 53 311 0.0 0.0 0.00 0.00 0.00 78 1016.2
20260506094105 53 311 0.0 0.0 0.00 0.00 0.00 78 1016.2
20260506094022 53 311 0.0 0.0 0.00 0.00 0.00 78 1016.2
20260506093604 53 311 0.0 0.0 0.00 0.00 0.00 78 1016.2
20260506093104 53 311 0.0 0.0 0.00 0.00 0.00 78 1016.1
20260506093022 54 311 0.0 0.0 0.00 0.00 0.00 77 1016.1
20260506092604 54 311 0.0 0.0 0.00 0.00 0.00 77 1016.1
20260506092106 54 311 0.0 0.0 0.00 0.00 0.00 77 1016.2
20260506092022 54 311 0.0 0.0 0.00 0.00 0.00 77 1016.2
20260506091106 54 311 0.0 0.0 0.00 0.00 0.00 76 1016.2
20260506090105 55 311 0.0 0.0 0.00 0.00 0.00 76 1016.1
20260506090021 55 311 0.0 0.0 0.00 0.00 0.00 75 1016.2
20260506085604 55 311 0.0 0.0 0.00 0.00 0.00 75 1016.2
20260506085104 55 311 0.0 0.0 0.00 0.00 0.00 75 1016.1
20260506085022 55 311 0.0 0.0 0.00 0.00 0.00 74 1016.1
20260506084605 55 311 0.0 0.0 0.00 0.00 0.00 74 1016.1
20260506084106 55 311 0.0 0.0 0.00 0.00 0.00 74 1016.0
20260506084022 55 311 0.0 0.0 0.00 0.00 0.00 74 1016.0
20260506083605 55 311 0.0 0.0 0.00 0.00 0.00 74 1016.0
20260506083021 56 311 0.0 0.0 0.00 0.00 0.00 74 1016.0
20260506082604 56 311 0.0 0.0 0.00 0.00 0.00 74 1016.0
20260506082106 56 311 0.0 0.0 0.00 0.00 0.00 73 1015.9
20260506082021 56 311 0.0 0.0 0.00 0.00 0.00 73 1016.0
20260506081604 56 311 0.0 0.0 0.00 0.00 0.00 73 1016.0
20260506081106 56 311 0.0 0.0 0.00 0.00 0.00 72 1015.9
20260506080604 57 311 0.0 0.0 0.00 0.00 0.00 72 1015.9
20260506080108 57 311 0.0 0.0 0.00 0.00 0.00 71 1015.8
20260506073104 58 311 0.0 0.0 0.00 0.00 0.00 70 1015.5
20260506073022 58 311 0.0 0.0 0.00 0.00 0.00 69 1015.3
20260506072604 58 311 0.0 0.0 0.00 0.00 0.00 69 1015.3
20260506072106 58 311 0.0 0.0 0.00 0.00 0.00 69 1015.3
20260506072027 58 311 0.0 0.0 0.00 0.00 0.00 69 1015.3
20260506071604 58 311 0.0 0.0 0.00 0.00 0.00 69 1015.3
20260506071105 59 311 0.0 0.0 0.00 0.00 0.00 68 1015.2
20260506071022 59 311 0.0 0.0 0.00 0.00 0.00 68 1015.1
20260506070606 59 311 0.0 0.0 0.00 0.00 0.00 68 1015.1
20260506070106 59 311 0.0 0.0 0.00 0.00 0.00 67 1015.1
20260506062104 61 311 0.0 0.0 0.00 0.00 0.00 64 1014.8
20260506062023 61 311 0.0 0.0 0.00 0.00 0.00 64 1014.8
20260506061604 61 311 0.0 0.0 0.00 0.00 0.00 64 1014.8
20260506061104 61 311 0.0 0.0 0.00 0.00 0.00 63 1014.7
20260506060106 62 311 0.0 0.0 0.00 0.00 0.00 62 1014.6
20260506051106 64 313 0.0 0.0 0.00 0.00 0.00 59 1014.0
20260506051022 65 313 0.0 0.0 0.00 0.00 0.00 58 1014.0
20260506050604 65 313 0.0 0.0 0.00 0.00 0.00 58 1014.0
20260506045104 65 313 0.0 0.0 0.00 0.00 0.00 57 1013.8
20260506045022 66 313 0.0 0.0 0.00 0.00 0.00 57 1013.7
20260506044604 66 313 0.0 0.0 0.00 0.00 0.00 57 1013.7
20260506044022 66 313 0.0 0.0 0.00 0.00 0.00 56 1013.5
20260506043104 67 313 0.0 0.0 0.00 0.00 0.00 55 1013.4
20260506043023 67 313 0.0 0.0 0.00 0.00 0.00 54 1013.4
20260506042604 67 313 0.0 0.0 0.00 0.00 0.00 54 1013.4
20260506042107 67 313 0.0 0.0 0.00 0.00 0.00 54 1013.3
20260506042022 68 313 0.0 0.0 0.00 0.00 0.00 53 1013.2
20260506041604 68 313 0.0 0.0 0.00 0.00 0.00 53 1013.2
20260506041104 68 313 0.0 0.0 0.00 0.00 0.00 53 1013.0
20260506041022 69 313 0.0 0.0 0.00 0.00 0.00 53 1013.0
20260506040605 69 313 0.0 0.0 0.00 0.00 0.00 53 1013.0
20260506040022 69 313 0.0 0.0 0.00 0.00 0.00 52 1012.9
20260506035604 69 313 0.0 0.0 0.00 0.00 0.00 52 1012.9
20260506035104 69 313 0.0 0.0 0.00 0.00 0.00 51 1012.8
20260506035023 69 313 0.0 0.0 0.00 0.00 0.00 50 1012.7
20260506034604 69 313 0.0 0.0 0.00 0.00 0.00 50 1012.7
20260506034105 70 313 0.0 0.0 0.00 0.00 0.00 50 1012.5
20260506034024 70 314 0.0 0.0 0.00 0.00 0.00 49 1012.5
20260506033604 70 314 0.0 0.0 0.00 0.00 0.00 49 1012.5
20260506033106 70 315 0.0 0.0 0.00 0.00 0.00 48 1012.3
20260506033023 71 328 0.0 2.0 0.00 0.00 0.00 47 1012.2
20260506032105 71 333 0.0 0.0 0.00 0.00 0.00 47 1012.1
20260506032022 71 345 0.0 2.0 0.00 0.00 0.00 46 1012.1
20260506031105 72 346 0.0 0.0 0.00 0.00 0.00 45 1012.1
20260506031023 72 352 0.0 2.0 0.00 0.00 0.00 46 1012.0
20260506030604 72 352 0.0 2.0 0.00 0.00 0.00 46 1012.0
20260506030106 73 355 0.0 5.0 0.00 0.00 0.00 44 1011.8
20260506030023 73 306 0.0 0.0 0.00 0.00 0.00 43 1011.7
20260506025604 73 306 0.0 0.0 0.00 0.00 0.00 43 1011.7
20260506025104 74 306 0.0 0.0 0.00 0.00 0.00 42 1011.5
20260506025022 74 305 1.0 3.0 0.00 0.00 0.00 41 1011.4
20260506024605 74 305 1.0 3.0 0.00 0.00 0.00 41 1011.4
20260506024104 74 299 0.0 3.0 0.00 0.00 0.00 41 1011.3
20260506024022 75 306 1.0 3.0 0.00 0.00 0.00 40 1011.3
20260506023604 75 306 1.0 3.0 0.00 0.00 0.00 40 1011.3
20260506023105 75 2 3.0 8.0 0.00 0.00 0.00 39 1011.2
20260506022604 75 330 1.0 5.0 0.00 0.00 0.00 40 1011.2
20260506022104 76 331 1.0 3.0 0.00 0.00 0.00 39 1011.2
20260506022021 76 330 0.0 6.0 0.00 0.00 0.00 39 1011.1
20260506021604 76 330 0.0 6.0 0.00 0.00 0.00 39 1011.1
20260506021105 76 342 1.0 5.0 0.00 0.00 0.00 39 1011.1
20260506021022 76 327 1.0 6.0 0.00 0.00 0.00 40 1011.0
20260506020606 76 327 1.0 6.0 0.00 0.00 0.00 40 1011.0
20260506020104 77 271 1.0 3.0 0.00 0.00 0.00 41 1010.9
20260506020025 77 271 0.0 1.0 0.00 0.00 0.00 43 1010.9
20260506015022 77 251 0.0 1.0 0.00 0.00 0.00 44 1010.9
20260506014604 77 251 0.0 1.0 0.00 0.00 0.00 44 1010.9
20260506014104 77 337 0.0 3.0 0.00 0.00 0.00 42 1010.9